Weather History for KY50 - September, 2013

Change the Weather History Date:

Friday, September 27, 2013

  Actual Average (KPCZ) Record (KPCZ)
Temperature  
Mean Temperature 61 °F -  
Max Temperature 81 °F 67 °F 84 °F (1974)
Min Temperature 41 °F 44 °F 28 °F (1965)
Degree Days  
Heating Degree Days 4    
Growing Degree Days 11 (Base 50)    
Moisture  
Dew Point 51 °F    
Average Humidity 61    
Maximum Humidity 100    
Minimum Humidity 30    
Precipitation  
Precipitation 0.00 in - - ()
Sea Level Pressure  
Sea Level Pressure 30.09 in    
Wind  
Wind Speed 3 mph (SE)    
Max Wind Speed 14 mph    
Max Gust Speed 18 mph    
Visibility 10 miles    
Events      
Averages and records for this station are not official NWS values.
T = Trace of Precipitation, MM = Missing Value Source: NWS Daily Summary

Daily Weather History Graph

Daily Weather History Graph

Search for Another Location

Airport or City:

Trip Planner

Search our weather history database for the weather conditions in past years. The results will help you decide how hot, cold, wet, or windy it might be!

Date:

Astronomy

Sep. 27, 2013 Rise Set
Actual Time 6:50 AM CDT 6:44 PM CDT
Civil Twilight 6:21 AM CDT 7:13 PM CDT
Nautical Twilight 5:48 AM CDT 7:47 PM CDT
Astronomical Twilight 5:13 AM CDT 8:21 PM CDT
Moon No Moon Rise 2:34 PM CDT (9/27)
Length of Visible Light 12h 51m
Length of Day
11h 54m
Last Quarter, 45% of the Moon is Illuminated
Sep 27
Last Quarter
Oct 4
New
Oct 11
First Quarter
Oct 18
Full
Oct 26
Last Quarter

Hourly Weather History & Observations

Time (CDT) Temp. Dew Point Humidity Pressure Visibility Wind Dir Wind Speed Gust Speed Precip Events Conditions
12:56 AM 45.9 °F 45.9 °F 100% 30.10 in 10.0 mi Calm Calm - N/A   Clear
1:56 AM 45.0 °F 45.0 °F 100% 30.11 in 10.0 mi Calm Calm - N/A   Clear
2:56 AM 43.9 °F - N/A% 30.11 in 10.0 mi Calm Calm - N/A   Clear
3:56 AM 43.0 °F - N/A% 30.11 in 10.0 mi Calm Calm - N/A   Clear
4:56 AM 41.9 °F - N/A% 30.12 in 10.0 mi Calm Calm - N/A   Clear
5:56 AM 41.9 °F - N/A% 30.13 in 10.0 mi Calm Calm - N/A   Clear
6:56 AM 41.9 °F - N/A% 30.14 in 10.0 mi Calm Calm - N/A   Clear
7:56 AM 46.9 °F 46.9 °F 100% 30.15 in 10.0 mi Calm Calm - N/A   Clear
8:56 AM 56.8 °F 56.8 °F 100% 30.14 in 10.0 mi Calm Calm - N/A   Clear
9:56 AM 64.9 °F 54.9 °F 70% 30.14 in 10.0 mi Variable 5.8 mph - N/A   Clear
10:56 AM 72.9 °F 54.0 °F 51% 30.12 in 10.0 mi SSE 8.1 mph - N/A   Clear
11:56 AM 77.0 °F 52.9 °F 43% 30.11 in 10.0 mi SSE 9.2 mph - N/A   Clear
12:56 PM 77.9 °F 50.0 °F 38% 30.09 in 10.0 mi SE 13.8 mph 18.4 mph N/A   Clear
1:56 PM 79.9 °F 50.0 °F 35% 30.07 in 10.0 mi South 10.4 mph - N/A   Clear
2:56 PM 81.0 °F 47.8 °F 31% 30.06 in 10.0 mi SSE 10.4 mph 17.3 mph N/A   Clear
3:56 PM 81.0 °F 46.9 °F 30% 30.04 in 10.0 mi SSE 11.5 mph - N/A   Clear
4:56 PM 79.9 °F 48.9 °F 34% 30.04 in 10.0 mi SSE 10.4 mph - N/A   Clear
5:56 PM 77.0 °F 50.9 °F 40% 30.03 in 10.0 mi SE 8.1 mph - N/A   Clear
6:56 PM 72.0 °F 52.9 °F 51% 30.03 in 10.0 mi ESE 5.8 mph - N/A   Clear
7:56 PM 68.0 °F 54.0 °F 61% 30.05 in 10.0 mi ESE 8.1 mph - N/A   Clear
8:56 PM 63.9 °F 54.0 °F 70% 30.06 in 10.0 mi ESE 5.8 mph - N/A   Clear
9:56 PM 61.9 °F 52.9 °F 72% 30.06 in 10.0 mi ESE 5.8 mph - N/A   Clear
10:56 PM 59.9 °F 50.9 °F 72% 30.04 in 10.0 mi SE 5.8 mph - N/A   Clear
11:56 PM 59.0 °F 48.9 °F 69% 30.03 in 10.0 mi SE 6.9 mph - N/A   Clear